"Pseudo-MPEC" for C0Z1CJ2

Created 2019 Sep 19 21:07:05 UT using Find_Orb

Click here for an explanation of pseudo-MPECs

 
 Astrometry: 
     C0Z1CJ2  C2019 08 05Fa]9'MtAstrometrySqGnKMTOHI7r^NVGsi7OdiO\+2u2`peW=3]F51
     C0Z1CJ2  C2019 08 05Dg2mjredacted;$?lbn#/AlJ0jymO2BaL8)09@TZSG$Wgqs5N\0tF51
     C0Z1CJ2  C2019 08 05][^'Z+VFNqrfwVv6v+J)RN:sy3bMJsclickG-T`4hkD5?;a`8q6(F51
     C0Z1CJ2  C2019 08 09nARQtlGY0-))/67o$%`HnZ=0@U'07ORC'JMM*,]k6@WI_70a_D%oF51
     C0Z1CJ2  C2019 08 094QNIa`M441AK#1FW7W'Pnk8.5qW-+.[1i5Pbejt,pQq..s5_BZQPF51
     C0Z1CJ2  C2019 08 09IHaV-pls_..idJT/x:%O1A^tnM3jherebdt1f\hs,ZlEBT4,%C;#F51
     C0Z1CJ2  C2019 08 09]@-I;ECfordLVT4tOF`e43qHZjhPPmslK1f2Z\WW)gTa]!H,h?THF51
     C0Z1CJ2  C2019 09 065x7fN^9tcJ;u^wR;w6(+.CiLxkXgef5df8eZgN^($CYV80Fu;T^=F51
     C0Z1CJ2  C2019 09 06*8*o$sexplanationoh6[?JHG.*K+c\Ds(?h7]'=T108Z42OWf?8F51
     C0Z1CJ2  C2019 09 07.35963 23 50 24.15 -07 50 02.8    ~979b 21.3 GVNEOCPG96
     C0Z1CJ2  C2019 09 07.36441 23 50 24.01 -07 49 58.4    ~979b 21.8 GVNEOCPG96
     C0Z1CJ2  C2019 09 07.36919 23 50 23.81 -07 49 54.9    ~979b 21.5 GVNEOCPG96
     C0Z1CJ2  C2019 09 07.37397 23 50 23.68 -07 49 50.7    ~979b 21.5 GVNEOCPG96
     C0Z1CJ2  C2019 09 07.45753 23 50 20.83 -07 48 43.4    ~97Bb       VNEOCPV06
     C0Z1CJ2  C2019 09 07.45991 23 50 20.75 -07 48 40.2    ~97Bb 22.7 GVNEOCPV06
     C0Z1CJ2  C2019 09 07.46228 23 50 20.71 -07 48 39.3    ~97Bb       VNEOCPV06
     C0Z1CJ2  C2019 09 07.46465 23 50 20.64 -07 48 37.4    ~97Bb 22.6 GVNEOCPV06
     C0Z1CJ2  C2019 09 18+i:,xDX)a:M4vF3^]+8n;+N)qX`]wRBAl(?j`QT*?QPB4%I'NfVHF51

Station data:
(F51) Pan-STARRS 1, Haleakala  (N20.707235 W156.255910)  US/Hawaii.
   Observers N. Primak, A. Schultz, S. Watters, J. Thiel, T. Goggia. Measurer
   PS1 Science Consortium. 1.8-m Ritchey-Chrétien + CCD.
(G96) Mt. Lemmon Survey  (N32.442754 W110.788720)  US/Arizona.  Observers T.
   A. Pruyne, B. M. Africano, E. J. Christensen, G. A. Farneth, D. C. Fuls,
   A. R. Gibbs, A. D. Grauer, H. Groeller, J. A. Johnson, R. A. Kowalski, S.
   M. Larson, G. J. Leonard, D. Rankin, R. L. Seaman, F. C. Shelly. 1.5-m
   reflector + 10K CCD.
(V06) Catalina Sky Survey-Kuiper  (N32.416847 W110.732550)  US/Arizona.
   Observers T. A. Pruyne, B. M. Africano, E. J. Christensen, G. A. Farneth,
   D. C. Fuls, A. R. Gibbs, A. D. Grauer, H. Groeller, J. A. Johnson, R. A.
   Kowalski, S. M. Larson, G. J. Leonard, D. Rankin, R. L. Seaman, F. C.
   Shelly. 1.55-m reflector + CCD.

Orbital elements:  C0Z1CJ2
   Perihelion 2019 Sep 2.262260 +/- 0.00845 TT =  6:17:39 (JD 2458728.762260)
Epoch 2019 Sep 18.0 TT = JDT 2458744.5   Earth MOID: 0.3740   Ma: 0.0031
M   4.94043088 +/- 0.0028           (J2000 ecliptic)          AutoNEOCP
n   0.31392251 +/- 6.04e-5          Peri.  339.69649 +/- 0.006
a   2.14414625 +/- 0.000275         Node     3.64138 +/- 0.0007
e   0.3565684 +/- 5.88e-5           Incl.    5.94606 +/- 0.0007
P   3.14                   H 22.8   G  0.15   U  6.2  
q 1.37961131 +/- 5.14e-5    Q 2.90868119 +/- 0.000499
From 18 observations 2019 Aug. 5-Sept. 18; mean residual 0".29
Residuals in arcseconds: 
190805 F51  .13-  .06+    190809 F51  .05-  .09-    190907 G96  .29+  .28+    
190805 F51  .13-  .04+    190906 F51  .30+  .26+    190907 V06  .61-  .67-    
190805 F51  .03+  .12+    190906 F51  .26+  .22+    190907 V06  .66-  .58+    
190809 F51  .15+  .00     190907 G96  .01-  .18-    190907 V06  .12-  .47-    
190809 F51  .07-  .13-    190907 G96  .34+  .35+    190907 V06  .03-  .52-    
190809 F51  .30+  .06-    190907 G96  .20-  .03-    190918 F51  .11+  .04+    

Ephemerides (geocentric):
Date (UTC) HH   RA              Dec         delta   r     elong  mag " sig PA
---- -- -- --  -------------   -----------  ------ ------ -----  --- ---- ---
2019 09 19 21  23 43 55.269   -04 56 44.75  .38416 1.3882 176.4 21.7 .382  85
2019 09 19 22  23 43 53.903   -04 56 09.75  .38421 1.3882 176.4 21.7 .383  85
2019 09 19 23  23 43 52.538   -04 55 34.75  .38427 1.3882 176.4 21.7 .385  85
2019 09 20 00  23 43 51.173   -04 54 59.74  .38433 1.3883 176.4 21.7 .386  85
2019 09 20 01  23 43 49.808   -04 54 24.74  .38438 1.3883 176.4 21.7 .388  85
2019 09 20 02  23 43 48.444   -04 53 49.74  .38444 1.3884 176.4 21.7 .389  85
2019 09 20 03  23 43 47.081   -04 53 14.74  .38450 1.3884 176.3 21.7 .390  85
2019 09 20 04  23 43 45.718   -04 52 39.74  .38455 1.3884 176.3 21.7 .392  85
2019 09 20 05  23 43 44.356   -04 52 04.74  .38461 1.3885 176.3 21.7 .393  85
2019 09 20 06  23 43 42.995   -04 51 29.74  .38467 1.3885 176.3 21.7 .395  85
2019 09 20 07  23 43 41.633   -04 50 54.74  .38473 1.3886 176.3 21.7 .396  85
2019 09 20 08  23 43 40.273   -04 50 19.74  .38479 1.3886 176.2 21.7 .397  85
2019 09 20 09  23 43 38.913   -04 49 44.75  .38485 1.3886 176.2 21.7 .399  85
2019 09 20 10  23 43 37.554   -04 49 09.75  .38491 1.3887 176.2 21.7 .400  85
2019 09 20 11  23 43 36.195   -04 48 34.75  .38496 1.3887 176.2 21.7 .402  85
2019 09 20 12  23 43 34.837   -04 47 59.75  .38502 1.3888 176.2 21.7 .403  85
2019 09 20 13  23 43 33.480   -04 47 24.76  .38508 1.3888 176.1 21.7 .404  85
2019 09 20 14  23 43 32.123   -04 46 49.76  .38514 1.3889 176.1 21.7 .406  85
2019 09 20 15  23 43 30.767   -04 46 14.77  .38520 1.3889 176.1 21.7 .407  85
2019 09 20 16  23 43 29.411   -04 45 39.77  .38526 1.3889 176.1 21.7 .409  85
2019 09 20 17  23 43 28.056   -04 45 04.78  .38533 1.3890 176.1 21.7 .410  85
2019 09 20 18  23 43 26.702   -04 44 29.79  .38539 1.3890 176.0 21.7 .411  85
2019 09 20 19  23 43 25.349   -04 43 54.79  .38545 1.3891 176.0 21.7 .413  85
2019 09 20 20  23 43 23.996   -04 43 19.80  .38551 1.3891 176.0 21.7 .414  85
2019 09 20 21  23 43 22.644   -04 42 44.81  .38557 1.3891 176.0 21.7 .416  85
2019 09 20 22  23 43 21.293   -04 42 09.82  .38563 1.3892 175.9 21.7 .417  85
2019 09 20 23  23 43 19.942   -04 41 34.83  .38570 1.3892 175.9 21.7 .418  85
2019 09 21 00  23 43 18.592   -04 40 59.85  .38576 1.3893 175.9 21.7 .420  85
2019 09 21 01  23 43 17.243   -04 40 24.86  .38582 1.3893 175.9 21.7 .421  85
2019 09 21 02  23 43 15.895   -04 39 49.87  .38589 1.3894 175.8 21.7 .422  85
2019 09 21 03  23 43 14.547   -04 39 14.89  .38595 1.3894 175.8 21.7 .424  85
2019 09 21 04  23 43 13.201   -04 38 39.90  .38601 1.3894 175.8 21.7 .425  85
2019 09 21 05  23 43 11.855   -04 38 04.92  .38608 1.3895 175.8 21.7 .427  85
2019 09 21 06  23 43 10.509   -04 37 29.94  .38614 1.3895 175.7 21.7 .428  85
2019 09 21 07  23 43 09.165   -04 36 54.96  .38620 1.3896 175.7 21.7 .429  84
2019 09 21 08  23 43 07.821   -04 36 19.98  .38627 1.3896 175.7 21.7 .431  84
2019 09 21 09  23 43 06.479   -04 35 45.00  .38633 1.3897 175.7 21.7 .432  84
2019 09 21 10  23 43 05.137   -04 35 10.02  .38640 1.3897 175.6 21.7 .433  84
2019 09 21 11  23 43 03.795   -04 34 35.04  .38647 1.3898 175.6 21.7 .435  84
2019 09 21 12  23 43 02.455   -04 34 00.07  .38653 1.3898 175.6 21.7 .436  84
2019 09 21 13  23 43 01.116   -04 33 25.10  .38660 1.3898 175.5 21.7 .438  84
2019 09 21 14  23 42 59.777   -04 32 50.12  .38666 1.3899 175.5 21.7 .439  84
2019 09 21 15  23 42 58.440   -04 32 15.15  .38673 1.3899 175.5 21.7 .440  84
2019 09 21 16  23 42 57.103   -04 31 40.18  .38680 1.3900 175.5 21.7 .442  84
2019 09 21 17  23 42 55.767   -04 31 05.21  .38686 1.3900 175.4 21.7 .443  84
2019 09 21 18  23 42 54.432   -04 30 30.25  .38693 1.3901 175.4 21.7 .444  84
2019 09 21 19  23 42 53.098   -04 29 55.28  .38700 1.3901 175.4 21.7 .446  84
2019 09 21 20  23 42 51.765   -04 29 20.32  .38707 1.3901 175.3 21.7 .447  84